KB1GNF Weather Reports


Display with metric or nautical units.
time (UTC)temp
F
wind
direction
speed
MPH
gust
MPH
rain 1hr
in
rain 24hr
in
rain mn
in
humidity
%
barometer
mb
20260902224518 69 184 0.0 0.0 0.00 0.00 0.00 87 1020.4
20260902224010 69 243 0.0 1.0 0.00 0.00 0.00 87 1020.5
20260902223514 69 244 0.0 1.0 0.00 0.00 0.00 87 1020.4
20260902223035 69 100 0.0 0.0 0.00 0.00 0.00 86 1020.4
20260902222514 69 101 0.0 1.0 0.00 0.00 0.00 86 1020.2
20260902222015 69 101 0.0 1.0 0.00 0.00 0.00 86 1020.2
20260902221530 69 240 0.0 1.0 0.00 0.00 0.00 85 1020.4
20260902221016 69 240 0.0 1.0 0.00 0.00 0.00 85 1020.4
20260902220506 69 239 0.0 1.0 0.00 0.00 0.00 85 1020.4
20260902220010 69 238 0.0 1.0 0.00 0.00 0.00 85 1020.4
20260902215505 69 238 0.0 1.0 0.00 0.00 0.00 85 1020.4
20260902215005 70 224 0.0 0.0 0.00 0.00 0.00 85 1020.3
20260902214526 70 250 0.0 0.0 0.00 0.00 0.00 84 1020.2
20260902214010 70 252 0.0 0.0 0.00 0.00 0.00 84 1020.3
20260902213509 70 252 0.0 0.0 0.00 0.00 0.00 83 1020.4
20260902213029 70 252 0.0 1.0 0.00 0.00 0.00 83 1020.2
20260902212510 70 252 0.0 1.0 0.00 0.00 0.00 84 1020.3
20260902212012 70 231 0.0 1.0 0.00 0.00 0.00 83 1020.2
20260902211531 70 233 0.0 1.0 0.00 0.00 0.00 84 1020.3
20260902211017 70 233 0.0 1.0 0.00 0.00 0.00 83 1020.3
20260902210516 70 233 0.0 1.0 0.00 0.00 0.00 82 1020.3
20260902210034 71 233 0.0 1.0 0.00 0.00 0.00 80 1020.3
20260902205518 71 233 0.0 1.0 0.00 0.00 0.00 80 1020.3
20260902205016 71 233 0.0 1.0 0.00 0.00 0.00 80 1020.4
20260902204512 71 227 0.0 4.0 0.00 0.00 0.00 79 1020.2
20260902204007 71 215 1.0 4.0 0.00 0.00 0.00 78 1020.1
20260902203508 72 199 2.0 4.0 0.00 0.00 0.00 77 1020.0
20260902203031 72 165 0.0 4.0 0.00 0.00 0.00 79 1020.0
20260902202510 72 191 1.0 3.0 0.00 0.00 0.00 78 1020.2
20260902202010 72 174 1.0 3.0 0.00 0.00 0.00 78 1020.2
20260902201526 72 160 1.0 4.0 0.00 0.00 0.00 78 1020.3
20260902201012 72 158 1.0 4.0 0.00 0.00 0.00 77 1020.3
20260902200514 72 175 1.0 4.0 0.00 0.00 0.00 77 1020.5
20260902200030 72 213 1.0 3.0 0.00 0.00 0.00 77 1020.6
20260902195514 71 158 1.0 4.0 0.00 0.00 0.00 78 1020.7
20260902195013 71 158 1.0 7.0 0.00 0.00 0.00 77 1020.9
20260902194532 72 200 3.0 7.0 0.00 0.00 0.00 76 1020.8
20260902194018 72 176 1.0 6.0 0.00 0.00 0.00 78 1020.7
20260902193518 72 159 2.0 6.0 0.00 0.00 0.00 77 1020.7
20260902193019 72 206 2.0 4.0 0.00 0.00 0.00 76 1020.7
20260902192509 72 153 0.0 3.0 0.00 0.00 0.00 77 1020.8
20260902192010 72 77 0.0 3.0 0.00 0.00 0.00 77 1020.8
20260902191536 72 215 1.0 4.0 0.00 0.00 0.00 77 1020.8
20260902191011 72 154 1.0 5.0 0.00 0.00 0.00 76 1020.8
20260902190516 71 205 2.0 5.0 0.00 0.00 0.00 76 1020.9
20260902190032 72 148 1.0 4.0 0.00 0.00 0.00 76 1021.0
20260902185503 72 203 2.0 4.0 0.00 0.00 0.00 74 1021.2
20260902185003 72 242 0.0 4.0 0.00 0.00 0.00 76 1021.2
20260902184519 72 89 0.0 5.0 0.00 0.01 0.00 75 1021.1
20260902184004 72 245 0.0 5.0 0.00 0.01 0.00 76 1021.0
20260902183506 72 215 2.0 8.0 0.00 0.01 0.00 75 1021.0
20260902183014 72 171 3.0 8.0 0.00 0.02 0.00 75 1021.0
20260902182507 72 147 3.0 7.0 0.00 0.02 0.00 75 1021.1
20260902182008 72 185 3.0 7.0 0.00 0.02 0.00 76 1021.0
20260902181519 72 212 4.0 6.0 0.00 0.02 0.00 75 1021.1
20260902181010 72 197 4.0 6.0 0.00 0.03 0.00 74 1021.1
20260902180512 72 176 3.0 6.0 0.00 0.03 0.00 74 1021.1
20260902180031 72 191 3.0 6.0 0.00 0.03 0.00 72 1021.1
20260902175503 73 184 2.0 8.0 0.00 0.03 0.00 75 1021.1
20260902175005 73 144 2.0 8.0 0.00 0.04 0.00 74 1021.3
20260902174507 73 151 1.0 4.0 0.00 0.04 0.00 75 1021.4
20260902174004 73 68 2.0 4.0 0.00 0.04 0.00 74 1021.3
20260902173505 72 180 1.0 3.0 0.00 0.05 0.00 74 1021.3
20260902173008 72 217 0.0 2.0 0.00 0.06 0.00 75 1021.3
20260902172506 71 146 0.0 4.0 0.00 0.08 0.00 76 1021.5
20260902172006 71 100 1.0 4.0 0.00 0.13 0.00 74 1021.6
20260902171515 71 123 1.0 3.0 0.00 0.16 0.00 74 1021.6
20260902171009 72 117 0.0 3.0 0.00 0.17 0.00 75 1021.4
20260902170509 72 89 0.0 3.0 0.00 0.17 0.00 74 1021.5
20260902170022 72 162 1.0 4.0 0.00 0.17 0.00 75 1021.5
20260902165509 71 124 1.0 4.0 0.00 0.17 0.00 76 1021.5
20260902165013 71 161 2.0 4.0 0.00 0.17 0.00 76 1021.6
20260902164529 71 237 2.0 5.0 0.00 0.17 0.00 74 1021.6
20260902164006 71 208 3.0 6.0 0.00 0.17 0.00 75 1021.5
20260902163504 71 257 1.0 7.0 0.00 0.17 0.00 77 1021.6
20260902163009 70 167 3.0 7.0 0.00 0.17 0.00 77 1021.6
20260902162504 70 224 3.0 5.0 0.00 0.18 0.00 77 1021.7
20260902162008 70 88 2.0 5.0 0.00 0.18 0.00 79 1021.7
20260902161514 70 127 0.0 2.0 0.00 0.20 0.00 79 1021.8
20260902161006 71 90 2.0 2.0 0.00 0.21 0.00 78 1022.0
20260902160509 70 213 0.0 2.0 0.00 0.23 0.00 78 1022.1
20260902160018 70 213 1.0 2.0 0.00 0.23 0.00 79 1022.2
20260902155510 70 122 0.0 2.0 0.00 0.23 0.00 79 1022.2
20260902155009 70 160 0.0 2.0 0.00 0.23 0.00 80 1022.3
20260902154527 69 224 1.0 2.0 0.00 0.24 0.00 80 1022.3
20260902154011 69 219 1.0 2.0 0.00 0.24 0.00 80 1022.3
20260902153512 69 217 0.0 3.0 0.00 0.24 0.00 80 1022.2
20260902153028 68 217 1.0 3.0 0.00 0.24 0.00 80 1022.3
20260902152503 68 213 1.0 2.0 0.00 0.24 0.00 80 1022.3
20260902152003 68 106 1.0 2.0 0.00 0.24 0.00 81 1022.4
20260902151507 69 151 0.0 1.0 0.00 0.24 0.00 80 1022.4
20260902151004 69 160 0.0 1.0 0.00 0.24 0.00 81 1022.6
20260902150504 69 172 0.0 2.0 0.00 0.24 0.00 80 1022.8
20260902150015 68 193 0.0 3.0 0.00 0.24 0.00 80 1022.7
20260902145507 68 207 0.0 3.0 0.00 0.24 0.00 81 1022.7
20260902145008 69 248 1.0 3.0 0.00 0.24 0.00 81 1022.6
20260902144532 68 160 1.0 4.0 0.00 0.24 0.00 81 1022.6
20260902144012 68 230 1.0 4.0 0.00 0.24 0.00 80 1022.5
20260902143512 69 214 0.0 3.0 0.00 0.24 0.00 80 1022.4
20260902143026 68 201 0.0 3.0 0.00 0.24 0.00 81 1022.3
20260902142513 68 227 0.0 2.0 0.00 0.24 0.00 81 1022.3
20260902142012 68 155 0.0 1.0 0.00 0.24 0.00 82 1022.3
20260902141536 67 224 0.0 2.0 0.00 0.24 0.00 84 1022.4
20260902141005 67 224 0.0 2.0 0.00 0.25 0.00 84 1022.4
20260902140506 66 168 0.0 2.0 0.00 0.25 0.00 84 1022.4
20260902140010 66 184 0.0 2.0 0.00 0.25 0.00 84 1022.3
20260902135509 66 81 1.0 2.0 0.00 0.25 0.00 85 1022.2
20260902135008 66 79 0.0 2.0 0.00 0.25 0.00 84 1022.2
20260902134516 66 84 1.0 4.0 0.00 0.25 0.00 83 1022.1
20260902134009 66 137 0.0 4.0 0.00 0.25 0.00 85 1022.1
20260902133511 66 210 1.0 5.0 0.00 0.25 0.00 86 1022.0
20260902133027 66 210 2.0 5.0 0.00 0.25 0.00 85 1021.8
20260902132515 66 214 1.0 3.0 0.00 0.25 0.00 87 1021.7
20260902132014 65 42 0.0 1.0 0.00 0.25 0.00 87 1021.8
20260902131528 65 71 0.0 1.0 0.00 0.25 0.00 87 1021.7
20260902131014 65 167 0.0 4.0 0.00 0.25 0.00 88 1021.9
20260902130514 65 82 0.0 4.0 0.00 0.25 0.00 87 1021.8
20260902130033 65 254 0.0 3.0 0.00 0.25 0.00 87 1021.9
20260902125517 65 80 0.0 0.0 0.00 0.25 0.00 87 1021.8
20260902125008 65 240 0.0 0.0 0.00 0.25 0.00 88 1021.8
20260902124514 65 22 0.0 0.0 0.00 0.25 0.00 90 1022.0
20260902124006 64 50 0.0 0.0 0.00 0.25 0.00 90 1021.8
20260902123510 64 359 0.0 0.0 0.00 0.25 0.00 90 1021.8
20260902123023 64 351 0.0 0.0 0.00 0.26 0.00 92 1021.9
20260902122512 64 351 0.0 0.0 0.00 0.26 0.00 93 1022.0
20260902122010 63 79 0.0 0.0 0.00 0.26 0.00 94 1021.9
20260902121528 63 79 0.0 1.0 0.00 0.26 0.00 95 1021.9
20260902121014 63 79 0.0 1.0 0.00 0.26 0.00 95 1022.0
20260902120514 63 79 0.0 1.0 0.00 0.26 0.00 96 1022.1
20260902120029 62 96 0.0 1.0 0.00 0.26 0.00 96 1022.1
20260902115514 62 153 0.0 0.0 0.00 0.26 0.00 96 1022.0
20260902115018 62 214 0.0 0.0 0.00 0.26 0.00 97 1022.0
20260902114532 62 214 0.0 0.0 0.00 0.26 0.00 97 1021.9
20260902114020 62 214 0.0 0.0 0.00 0.27 0.00 97 1021.9
20260902113506 61 214 0.0 0.0 0.00 0.29 0.00 97 1022.1
20260902113018 61 214 0.0 0.0 0.00 0.30 0.00 97 1022.2
20260902112510 61 214 0.0 0.0 0.00 0.30 0.00 97 1022.2
20260902112013 61 214 0.0 1.0 0.00 0.30 0.00 97 1022.2
20260902111533 61 215 0.0 1.0 0.00 0.32 0.00 97 1022.3
20260902111010 61 215 0.0 0.0 0.00 0.34 0.00 97 1022.2
20260902110515 61 215 0.0 0.0 0.00 0.35 0.00 97 1022.2
20260902110029 61 215 0.0 0.0 0.00 0.36 0.00 97 1022.2
20260902105515 61 215 0.0 0.0 0.00 0.36 0.00 97 1022.1
20260902105014 61 214 0.0 0.0 0.00 0.36 0.00 97 1022.1
20260902104534 61 214 0.0 0.0 0.00 0.36 0.00 97 1022.0
20260902104018 61 214 0.0 0.0 0.00 0.37 0.00 97 1021.9
20260902103516 61 214 0.0 0.0 0.00 0.38 0.00 97 1021.8
20260902103030 61 214 0.0 0.0 0.00 0.38 0.00 97 1021.8
20260902102514 61 214 0.0 0.0 0.00 0.38 0.00 97 1021.8
20260902102019 61 212 0.0 0.0 0.00 0.38 0.00 97 1021.8
20260902101523 61 212 0.0 0.0 0.00 0.38 0.00 97 1021.7
20260902101013 61 212 0.0 0.0 0.00 0.38 0.00 97 1021.6
20260902100512 61 212 0.0 0.0 0.00 0.38 0.00 97 1021.5
20260902100028 61 212 0.0 0.0 0.00 0.38 0.00 97 1021.4
20260902095506 61 212 0.0 0.0 0.00 0.38 0.00 97 1021.4
20260902095004 61 212 0.0 0.0 0.00 0.38 0.00 97 1021.4
20260902094508 61 212 0.0 0.0 0.00 0.39 0.00 97 1021.4
20260902094004 61 212 0.0 0.0 0.00 0.39 0.00 97 1021.3
20260902093506 61 212 0.0 0.0 0.00 0.39 0.00 97 1021.1
20260902093012 61 213 0.0 0.0 0.00 0.39 0.00 97 1021.0
20260902092506 61 213 0.0 0.0 0.00 0.39 0.00 97 1021.0
20260902092006 61 213 0.0 0.0 0.00 0.39 0.00 97 1021.3
20260902091518 61 213 0.0 0.0 0.00 0.39 0.00 97 1021.3
20260902091008 61 213 0.0 0.0 0.00 0.39 0.00 97 1021.0
20260902090508 61 213 0.0 0.0 0.00 0.39 0.00 97 1020.9
20260902090019 61 213 0.0 0.0 0.00 0.39 0.00 97 1020.7
20260902085507 61 213 0.0 0.0 0.00 0.39 0.00 97 1021.0
20260902085005 61 211 0.0 0.0 0.00 0.39 0.00 97 1020.8
20260902084504 61 210 0.0 0.0 0.00 0.39 0.00 97 1021.0
20260902084004 61 210 0.0 0.0 0.00 0.39 0.00 97 1020.9
20260902083503 61 210 0.0 0.0 0.00 0.39 0.00 97 1020.8
20260902083011 61 210 0.0 0.0 0.00 0.39 0.00 97 1020.8
20260902082504 61 210 0.0 0.0 0.00 0.39 0.00 97 1020.8
20260902082006 61 210 0.0 0.0 0.00 0.39 0.00 97 1020.8
20260902081514 61 210 0.0 0.0 0.00 0.39 0.00 97 1020.9
20260902081008 61 210 0.0 0.0 0.00 0.39 0.00 97 1020.9
20260902080508 61 210 0.0 0.0 0.00 0.39 0.00 97 1021.1
20260902080021 61 210 0.0 0.0 0.00 0.39 0.00 97 1021.1
20260902075509 61 210 0.0 0.0 0.00 0.39 0.00 97 1021.1
20260902075010 61 210 0.0 0.0 0.00 0.39 0.00 97 1021.1
20260902074521 61 210 0.0 0.0 0.00 0.39 0.00 97 1021.0
20260902074010 61 210 0.0 0.0 0.00 0.39 0.00 97 1020.8
20260902073512 61 210 0.0 0.0 0.00 0.39 0.00 97 1020.7
20260902073024 61 210 0.0 0.0 0.00 0.39 0.00 97 1020.6
20260902072504 61 210 0.0 0.0 0.00 0.39 0.00 97 1020.6
20260902072004 61 210 0.0 0.0 0.00 0.39 0.00 97 1020.7
20260902071516 61 210 0.0 0.0 0.00 0.39 0.00 97 1020.7
20260902071005 61 210 0.0 0.0 0.00 0.39 0.00 97 1020.7
20260902070507 61 210 0.0 0.0 0.00 0.39 0.00 97 1020.8
20260902070016 61 210 0.0 0.0 0.00 0.39 0.00 97 1021.0
20260902065508 61 210 0.0 0.0 0.00 0.39 0.00 97 1021.0
20260902065008 61 210 0.0 0.0 0.00 0.39 0.00 97 1021.1
20260902064527 61 210 0.0 0.0 0.00 0.39 0.00 97 1021.0
20260902064013 61 210 0.0 0.0 0.00 0.39 0.00 97 1021.0
20260902063510 61 210 0.0 0.0 0.00 0.39 0.00 97 1020.9
20260902063038 61 210 0.0 0.0 0.00 0.39 0.00 97 1020.9
20260902062514 61 210 0.0 0.0 0.00 0.39 0.00 97 1020.8
20260902062011 61 210 0.0 0.0 0.00 0.39 0.00 97 1020.8
20260902061527 61 210 0.0 0.0 0.00 0.39 0.00 97 1020.9
20260902061008 61 210 0.0 0.0 0.00 0.39 0.00 97 1020.9
20260902060506 61 210 0.0 0.0 0.00 0.39 0.00 97 1020.9
20260902060016 61 210 0.0 0.0 0.00 0.39 0.00 97 1020.9
20260902055508 61 210 0.0 0.0 0.00 0.39 0.00 97 1020.8
20260902055008 61 210 0.0 0.0 0.00 0.39 0.00 97 1020.7
20260902054525 61 210 0.0 0.0 0.00 0.39 0.00 97 1020.7
20260902054010 61 210 0.0 0.0 0.00 0.39 0.00 97 1020.6
20260902053512 61 210 0.0 0.0 0.00 0.39 0.00 97 1020.7
20260902053027 61 210 0.0 0.0 0.00 0.39 0.00 97 1020.6
20260902052512 61 210 0.0 0.0 0.00 0.39 0.00 97 1020.5
20260902052011 61 210 0.0 0.0 0.00 0.39 0.00 97 1020.5
20260902051526 61 210 0.0 0.0 0.00 0.39 0.00 97 1020.5
20260902051015 61 210 0.0 0.0 0.00 0.39 0.00 97 1020.5
20260902050515 61 212 0.0 0.0 0.00 0.39 0.00 97 1020.5
20260902050052 61 243 0.0 0.0 0.00 0.39 0.00 97 1020.5
20260902045515 61 243 0.0 0.0 0.00 0.39 0.00 97 1020.6
20260902045007 61 243 0.0 0.0 0.00 0.39 0.00 97 1020.6
20260902044517 61 243 0.0 0.0 0.00 0.39 0.00 96 1020.5
20260902044009 61 243 0.0 0.0 0.00 0.39 0.00 96 1020.5
20260902043510 61 243 0.0 0.0 0.00 0.39 0.00 97 1020.3
20260902043032 61 243 0.0 0.0 0.00 0.39 0.00 97 1020.2
20260902042513 61 243 0.0 0.0 0.00 0.39 0.00 96 1020.2
20260902042014 61 243 0.0 0.0 0.00 0.39 0.00 96 1020.1
20260902041528 61 243 0.0 0.0 0.00 0.39 0.00 96 1020.1
20260902041016 61 243 0.0 0.0 0.00 0.39 0.00 96 1020.0
20260902040515 61 243 0.0 0.0 0.00 0.39 0.00 96 1019.8
20260902040030 61 243 0.0 0.0 0.00 0.39 0.00 96 1019.7
20260902035516 61 243 0.0 0.0 0.00 0.39 0.39 96 1019.6
20260902035013 61 243 0.0 0.0 0.00 0.39 0.39 96 1019.6
20260902034530 61 243 0.0 0.0 0.00 0.39 0.39 96 1019.5
20260902034013 61 243 0.0 0.0 0.00 0.39 0.39 96 1019.4
20260902033508 61 243 0.0 0.0 0.00 0.39 0.39 96 1019.3
20260902033016 62 243 0.0 0.0 0.00 0.39 0.39 95 1019.2
20260902032510 62 243 0.0 0.0 0.00 0.39 0.39 95 1019.3
20260902032014 62 243 0.0 0.0 0.00 0.39 0.39 95 1019.4
20260902031526 62 243 0.0 0.0 0.00 0.39 0.39 95 1019.5
20260902031017 62 243 0.0 0.0 0.00 0.39 0.39 95 1019.5
20260902030511 62 243 0.0 0.0 0.00 0.39 0.39 95 1019.5
20260902030030 62 243 0.0 0.0 0.00 0.39 0.39 95 1019.5
20260902025516 62 243 0.0 0.0 0.00 0.39 0.39 94 1019.6
20260902025016 62 243 0.0 0.0 0.00 0.39 0.39 94 1019.4
20260902024531 62 243 0.0 0.0 0.00 0.39 0.39 94 1019.5
20260902024016 62 245 0.0 0.0 0.00 0.39 0.39 94 1019.5
20260902023516 63 246 0.0 0.0 0.00 0.39 0.39 94 1019.6
20260902023029 63 246 0.0 0.0 0.00 0.39 0.39 94 1019.7
20260902022516 63 246 0.0 0.0 0.00 0.39 0.39 94 1019.7
20260902022010 63 246 0.0 0.0 0.00 0.39 0.39 93 1019.7
20260902021523 63 246 0.0 0.0 0.00 0.39 0.39 93 1019.6
20260902021012 63 246 0.0 0.0 0.00 0.39 0.39 91 1019.5
20260902020512 63 247 0.0 0.0 0.00 0.39 0.39 92 1019.4
20260902020026 63 160 0.0 1.0 0.00 0.39 0.39 91 1019.6
20260902015515 63 237 0.0 2.0 0.00 0.39 0.39 91 1019.9
20260902015013 63 194 1.0 2.0 0.00 0.39 0.39 91 1019.7
20260902014530 63 212 0.0 3.0 0.00 0.39 0.39 91 1019.6
20260902014016 63 201 0.0 3.0 0.00 0.39 0.39 91 1019.6
20260902013516 63 205 1.0 3.0 0.00 0.39 0.39 92 1019.6
20260902013038 63 245 0.0 0.0 0.00 0.39 0.39 92 1019.6
20260902012514 63 76 0.0 2.0 0.00 0.39 0.39 91 1019.6
20260902012014 63 76 0.0 2.0 0.00 0.39 0.39 91 1019.6
20260902011536 63 99 0.0 2.0 0.00 0.39 0.39 92 1019.6
20260902011012 63 103 0.0 2.0 0.00 0.39 0.39 93 1019.6
20260902010509 63 270 0.0 2.0 0.00 0.39 0.39 93 1019.6
20260902010029 64 221 0.0 0.0 0.00 0.39 0.39 94 1019.4
20260902005513 64 221 0.0 1.0 0.00 0.39 0.39 94 1019.2
20260902005013 63 215 0.0 1.0 0.00 0.39 0.39 94 1019.1
20260902004504 63 175 0.0 2.0 0.00 0.39 0.39 95 1019.1
20260902004003 63 39 0.0 2.0 0.00 0.39 0.39 95 1019.1
20260902003503 64 205 0.0 0.0 0.00 0.39 0.39 95 1018.9
20260902003016 64 205 0.0 0.0 0.00 0.39 0.39 95 1018.7
20260902002505 64 154 0.0 0.0 0.00 0.39 0.39 95 1018.7
20260902002006 64 154 0.0 0.0 0.00 0.39 0.39 95 1018.7
20260902001517 64 154 0.0 0.0 0.00 0.39 0.39 95 1018.8
20260902001008 64 154 0.0 0.0 0.00 0.39 0.39 95 1018.9
20260902000512 64 154 0.0 0.0 0.00 0.39 0.39 94 1018.9
20260902000023 64 154 0.0 1.0 0.00 0.39 0.39 94 1018.7
20260901235512 64 154 0.0 1.0 0.00 0.39 0.39 93 1018.6
20260901235015 64 179 0.0 1.0 0.00 0.39 0.39 93 1018.5
20260901234525 64 205 0.0 0.0 0.00 0.39 0.39 93 1018.4
20260901234014 64 205 0.0 2.0 0.00 0.39 0.39 93 1018.6
20260901233514 64 205 0.0 2.0 0.00 0.39 0.39 93 1018.6
20260901233007 64 216 1.0 2.0 0.00 0.39 0.39 92 1018.5
20260901232504 64 192 1.0 2.0 0.00 0.39 0.39 92 1018.5
20260901232004 64 172 1.0 2.0 0.00 0.39 0.39 93 1018.5
20260901231528 64 178 0.0 3.0 0.00 0.39 0.39 93 1018.5
20260901231004 64 218 1.0 3.0 0.00 0.39 0.39 93 1018.4
20260901230508 64 150 1.0 3.0 0.00 0.39 0.39 93 1018.4
20260901230018 65 208 0.0 0.0 0.00 0.39 0.39 94 1018.6
20260901225510 65 208 0.0 0.0 0.00 0.39 0.39 93 1018.8
20260901225012 65 205 0.0 2.0 0.00 0.39 0.39 93 1018.7